Probability
0 0 0 0 0 0 0 0 0 0 0 0 0 0 0 0 0 0 0 0 0 0 0 0 0 0 0 0 0 0 0 0 0 0 0 0 0 0 0 0 0 0 0
0 0 0 0 0 0 0 0 0 0 0 0 0 0 0 0 0 0 0 0 0 0 0 0 0 0 0 0 0 0 0 0 0 0 0 0 0 0 0 0 0 0 0
0 0 0 0 0 0 0 0 0 0 0 0 0 0 0 0 0 0 0 0 0 0 0 0 0 0 0 0 0 0 0 0 0 0 0 0 0 0 0 0 0 0 0
0 0 0 0 0 0 0 0 0 0 0 0 0 0 0 0 0 0 0 0 0 0 0 0 0 0 0 0 0 0 0 0 0 0 0 0 0 0 0 0 0 0 0
0 0 0 0 0 0 0 0 0 0 0 0 0 0 0 0 0 0 0 0 0 0 0 0 0 0 0 0 0 0 0 0 0 0 0 0 0 0 0 0 0 0 0
0 0 0 0 0 0 0 0 0 0 0 0 0 0 0 0 0 0 0 0 0 0 0 0 0 0 0 0 0 0 0 0 0 0 0 0 0 0 0 0 0 0 0
0 0 0 0 0 0 0 0 0 0 0 0 0 0 0 0 0 0 0 0 0 0 0 0 0 0 0 0 0 0 0 0 0 0 0 0 0 0 0 0 0 0 0
0 0 0 0 0 0 0 0 0 0 0 0 0 0 0 0 0 0 0 0 0 0 0 0 0 0 0 0 0 0 0 0 0 0 0 0 0 0 0 0 0 0 0
0 0 0 0 0 0 0 0 0 0 0 0 0 0 0 0 0 0 0 0 0 0 0 0 0 0 0 0 0 0 0 0 0 0 0 0 0 0 0 0 0 0 0
0 0 0 0 0 0 0 0 0 0 0 0 0 0 0 0 0 0 0 0 0 0 0 0 0 0 0 0 0 0 0 0 0 0 0 0 0 0 0 0 0 0 0
0 0 0 0 0 0 0 0 0 0 0 0 0 0 0 0 0 0 0 0 0 0 0 0 0 0 0 0 0 0 0 0 0 0 0 0 0 0 0 0 0 0 0
0 0 0 0 0 0 0 0 0 0 0 0 0 0 0 0 0 0 0 0 0 0 0 0 0 0 0 0 0 0 0 0 0 0 0 0 0 0 0 0 0 0 0
0 0 0 0 0 0 0 0 0 0 0 0 0 0 0 0 0 0 0 0 0 0 0 0 0 0 0 0 0 0 0 0 0 0 0 0 0 0 0 0 0 0 0
0 0 0 0 0 0 0 0 0 0 0 0 0 0 0 0 0 0 0 0 0 0 0 0 0 0 0 0 0 0 0 0 0 0 0 0 0 0 0 0 0 0 0
0 0 0 0 0 0 0 0 0 0 0 0 0 0 0 0 0 0 0 0 0 0 0 0 0 0 0 0 0 0 0 0 0 0 0 0 0 0 0 0 0 0 0
0 0 0 0 0 0 0 0 0 0 0 0 0 0 0 0 0 0 0 0 0 0 0 0 0 0 0 0 0 0 0 0 0 0 0 0 0 0 0 0 0 0 0
0 0 0 0 0 0 0 0 0 0 0 0 0 0 0 0 0 0 0 0 0 0 0 0 0 0 0 0 0 0 0 0 0 0 0 0 0 0 0 0 0 0 0
0 0 0 0 0 0 0 0 0 0 0 0 0 0 0 0 0 0 0 0 0 0 0 0 0 0 0 0 0 0 0 0 0 0 0 0 0 0 0 0 0 0 0
0 0 0 0 0 0 0 0 0 0 0 0 0 0 0 0 0 0 0 0 0 0 0 0 0 0 0 0 0 0 0 0 0 0 0 0 0 0 0 0 0 0 0
0 0 0 0 0 0 0 0 0 0 0 0 0 0 0 0 0 0 0 0 0 0 0 0 0 0 0 0 0 0 0 0 0 0 0 0 0 0 0 0 0 0 0
0 0 0 0 0 0 0 0 0 0 0 0 0 0 0 0 0 0 0 0 0 0 0 0 0 0 0 0 0 0 0 0 0 0 0 0 0 0 0 0 0 0 0
0 0 0 0 0 0 0 0 0 0 0 0 0 0 0 0 0 0 0 0 0 0 0 0 0 0 0 0 0 0 0 0 0 0 0 0 0 0 0 0 0 0 0
0 0 0 0 0 0 0 0 0 0 0 0 0 0 0 0 0 0 0 0 0 0 0 0 0 0 0 0 0 0 0 0 0 0 0 0 0 0 0 0 0 0 0
0 0 0 0 0 0 0 0 0 0 0 0 0 0 0 0 0 0 0 0 0 0 0 0 0 0 0 0 0 0 0 0 0 0 0 0 0 0 0 0 0 0 0
0 0 0 0 0 0 0 0 0 0 0 0 0 0 0 0 0 0 0 0 0 0 0 0 0 0 0 0 0 0 0 0 0 0 0 0 0 0 0 0 0 0 0
0 0 0 0 0 0 0 0 0 0 0 0 0 0 0 0 0 0 0 0 0 0 0 0 0 0 0 0 0 0 0 0 0 0 0 0 0 0 0 0 0 0 0
Wind_Speed
4 4 4 4 4 4 4 4 3 2 2 3 3 3 3 3 3 4 4 5 6 6 6 7 7 7 6 6 6 7 7 8 12 12 9 9 11 11 9 9 10 10 9
4 4 4 4 4 4 3 3 2 2 2 2 2 3 3 3 3 4 5 5 6 6 6 7 8 6 8 7 7 8 8 8 10 14 11 9 11 11 10 10 9 8 9
4 4 4 4 4 3 3 2 2 1 1 1 2 2 2 3 3 3 4 5 6 6 7 7 8 8 9 7 8 8 8 8 9 11 12 9 8 7 8 8 9 8 8
5 5 5 4 3 3 2 2 1 1 1 1 1 2 2 2 3 3 4 5 6 6 7 7 8 9 9 9 8 9 8 9 9 10 10 9 8 6 6 7 7 6 7
5 5 4 4 3 3 2 1 1 1 1 1 2 2 2 2 2 3 4 5 6 7 7 7 8 8 9 9 8 9 9 9 8 9 9 9 8 6 6 5 7 7 7
6 5 4 4 3 3 2 2 1 1 1 1 2 2 2 2 4 5 5 5 6 7 7 7 7 7 7 10 11 12 12 11 11 10 9 10 11 9 7 6 6 6 7
6 5 5 5 4 3 3 2 2 1 1 1 2 2 3 3 5 6 6 6 6 6 7 7 6 6 8 9 10 11 11 12 13 12 13 13 12 9 7 8 7 7 9
6 6 5 5 4 4 3 3 2 1 2 2 2 2 3 4 6 6 7 6 6 6 6 7 8 8 8 9 10 10 10 9 10 9 11 12 11 9 8 8 8 7 6
6 6 5 5 4 4 4 3 2 2 2 2 3 3 4 4 6 7 7 5 5 6 6 7 8 9 11 12 10 10 11 9 9 11 12 13 13 12 8 5 5 4 6
7 5 5 4 4 4 3 2 2 2 2 2 3 3 4 5 6 7 7 4 5 6 6 6 7 8 11 12 10 10 11 10 8 9 9 10 10 9 8 7 6 6 5
4 4 4 4 3 3 2 2 2 2 2 3 3 4 4 5 6 7 7 4 5 6 6 6 6 10 13 13 12 9 11 11 8 8 8 7 6 5 5 5 5 5 6
4 4 4 3 2 2 2 1 1 2 2 3 3 4 3 3 4 6 8 8 8 7 7 6 7 12 15 15 11 11 13 10 6 6 6 6 6 5 5 4 4 4 5
4 4 3 3 2 2 2 2 1 2 2 3 3 3 3 3 4 7 8 9 9 7 7 11 13 15 14 11 10 11 8 5 5 6 6 6 5 5 4 4 3 2 3
4 3 3 3 2 2 2 2 2 3 3 3 3 4 4 4 4 4 4 5 6 7 7 8 11 12 10 9 8 6 4 4 5 6 6 5 4 4 4 3 3 2 2
4 3 3 2 2 2 2 2 3 3 3 4 4 4 5 5 5 9 8 6 6 7 8 6 6 6 6 5 5 5 4 4 5 5 5 5 4 4 4 3 3 2 2
3 3 2 2 2 1 1 2 3 4 6 7 7 6 6 8 11 12 12 13 13 12 8 6 6 6 6 6 6 6 5 5 5 5 5 5 4 4 4 3 2 2 2
3 2 2 2 2 2 2 2 2 3 4 5 6 7 8 10 12 12 12 12 12 10 6 6 6 6 6 6 6 6 6 5 5 4 5 4 4 4 3 3 2 2 2
2 2 2 1 1 2 2 2 2 3 3 3 4 7 9 11 12 12 11 9 6 5 5 5 6 6 6 6 6 6 6 5 4 4 4 4 4 4 4 3 3 3 2
2 1 1 1 1 1 1 2 2 3 4 4 4 5 7 9 10 9 8 4 5 5 5 5 5 6 6 6 6 5 5 5 5 5 4 4 4 4 4 3 3 3 3
1 1 1 1 1 1 2 2 2 3 3 4 4 5 5 5 4 5 4 4 5 5 5 5 6 6 6 6 5 5 5 5 5 5 5 4 4 4 4 4 3 3 2
1 1 1 1 2 2 2 2 3 3 4 4 5 5 7 5 5 6 5 5 5 6 6 6 6 6 5 5 5 6 6 5 5 5 5 4 4 4 4 3 3 2 1
1 1 2 2 2 2 2 3 3 3 4 5 5 5 7 5 5 5 5 5 5 5 6 6 6 6 5 5 5 5 6 6 5 5 5 4 4 3 3 3 2 2 1
2 2 2 2 2 3 3 3 3 4 4 4 4 4 4 4 5 5 6 6 6 6 6 6 6 6 5 5 5 5 6 6 5 5 5 5 4 3 3 3 3 2 2
2 2 2 2 2 3 3 3 3 4 4 4 4 4 5 5 5 6 6 6 6 6 6 6 6 7 8 7 5 5 5 6 5 5 6 5 4 3 2 2 2 2 2
2 2 3 3 3 3 3 4 4 4 4 4 4 5 5 5 5 6 5 5 6 6 7 7 6 6 7 8 7 6 7 7 6 4 4 3 3 3 2 2 1 2 2
3 3 3 3 3 3 4 4 4 4 4 4 5 5 5 5 5 6 6 6 6 6 6 6 7 7 8 7 7 7 7 6 5 4 3 3 3 2 2 2 3 2 3
Wind_Direction
169 167 162 164 171 174 178 184 187 197 215 226 233 239 244 248 251 250 253 261 261 264 265 266 268 271 271 270 269 266 265 267 274 282 284 289 289 285 285 280 277 275 271
163 160 156 152 151 155 164 173 181 195 209 223 233 239 247 253 256 257 262 265 266 269 273 275 275 276 274 273 272 272 272 270 274 283 286 287 284 285 285 284 280 276 274
160 157 156 159 158 158 156 155 162 183 203 220 234 245 255 263 268 272 272 271 269 271 273 274 277 278 277 279 279 278 277 278 275 279 285 287 285 285 286 284 284 280 280
165 162 162 162 162 160 157 161 169 186 208 233 249 255 261 268 272 276 276 275 276 275 276 276 278 277 280 284 282 281 281 280 276 276 281 286 285 287 284 286 291 287 285
173 173 172 162 152 142 141 147 161 197 229 246 255 265 274 275 283 289 283 281 282 282 281 279 280 282 282 282 283 286 287 283 282 279 280 285 284 288 283 281 280 289 286
181 181 169 160 155 150 147 147 154 188 226 252 259 268 276 277 292 295 296 287 283 283 286 287 286 281 283 282 276 276 277 280 283 281 280 279 281 280 280 275 277 284 285
182 179 173 168 165 164 161 164 182 203 219 246 265 277 281 295 309 307 305 295 285 285 290 294 294 295 294 294 290 285 278 274 272 275 279 279 283 281 279 274 269 270 271
181 180 178 176 172 171 175 182 199 215 234 249 262 275 281 292 304 306 306 294 287 289 291 293 296 299 301 301 297 291 286 283 280 275 276 281 284 288 278 269 267 270 279
185 185 183 182 178 179 185 194 207 221 238 253 265 273 278 291 304 310 311 297 289 292 293 292 292 295 301 303 298 292 291 289 288 283 282 284 288 286 282 276 265 264 277
189 184 180 182 184 188 190 196 218 234 245 261 269 271 276 286 300 306 310 295 293 295 293 287 283 287 296 300 295 292 290 295 301 300 294 292 289 287 279 263 258 255 269
167 161 169 181 186 187 183 192 212 240 255 263 270 273 277 283 295 302 304 296 291 295 293 292 291 296 299 300 295 286 286 295 296 293 292 294 295 293 291 281 269 256 256
147 157 165 172 174 170 174 188 211 232 253 267 273 279 277 281 286 296 299 297 297 290 288 291 294 300 301 300 296 289 293 293 287 286 287 289 293 297 301 302 292 278 272
146 155 160 159 164 172 181 190 210 228 243 259 268 277 286 289 289 295 297 297 297 292 287 289 294 297 299 296 291 293 293 283 279 280 281 283 288 293 298 303 311 303 314
152 157 160 163 172 176 191 201 215 224 238 253 267 279 289 290 289 296 300 300 295 294 294 295 294 292 289 286 290 289 280 279 279 278 281 285 291 290 288 293 295 301 305
152 157 164 175 181 194 214 230 239 245 248 260 267 275 282 287 295 303 303 299 297 293 299 293 291 292 290 290 291 292 288 284 279 279 280 282 284 285 289 295 292 295 281
155 162 170 176 184 201 221 258 263 271 276 274 276 280 281 284 298 303 303 301 300 299 294 282 284 285 287 291 293 293 289 286 284 282 280 279 281 282 287 293 289 275 268
164 172 179 184 194 205 222 242 271 285 284 286 291 293 296 302 305 306 306 303 299 297 283 276 280 284 286 287 286 285 286 288 288 284 281 280 279 279 278 279 275 271 268
165 170 186 197 208 219 232 249 263 277 291 295 307 310 312 313 312 312 313 309 295 290 275 277 280 283 285 286 285 284 286 289 286 283 281 280 279 277 274 271 268 264 263
174 177 183 196 212 227 240 253 263 271 278 290 300 304 314 314 312 312 319 301 290 289 286 282 281 283 284 286 287 288 286 285 286 284 281 279 278 276 273 271 267 261 259
173 171 200 206 210 228 239 247 259 269 277 283 287 297 312 310 306 310 310 298 289 287 287 284 283 283 284 284 284 283 282 281 282 280 279 278 278 275 271 269 263 259 261
183 183 198 216 221 230 242 248 256 263 269 276 281 288 299 298 294 297 297 293 290 290 289 288 287 287 283 281 280 278 277 277 278 277 277 277 276 274 272 267 259 251 232
201 205 216 227 234 238 246 250 254 259 267 274 283 293 299 294 288 289 290 291 291 289 289 287 285 284 283 280 277 276 274 274 275 275 276 278 276 268 263 256 249 236 205
209 215 225 233 240 245 250 252 255 260 267 273 281 287 290 287 286 287 289 292 293 292 291 287 284 283 281 277 274 270 269 269 270 268 268 270 269 263 254 243 228 211 198
218 224 232 238 241 245 251 257 260 264 269 274 278 280 282 283 284 285 288 290 292 292 291 288 286 286 286 285 281 276 273 272 271 266 263 259 261 259 251 237 216 186 171
225 229 237 242 245 249 254 259 262 265 268 270 273 275 278 281 283 285 288 288 289 290 292 292 288 288 288 286 283 282 280 278 272 267 261 255 248 241 229 214 188 168 165
232 235 241 245 248 251 253 258 262 265 267 269 270 272 275 278 281 284 287 286 289 290 291 291 291 292 292 291 288 286 285 281 273 264 254 245 232 217 199 180 170 166 165